#timestamp,LO_Frequency,Hit,StdDev 
1638604815.9,286046997.7,N
1638604835.7,286046997.1,N
1638604855.5,286046999.2,N
1638604875.4,286046999.2,N
1638604895.2,286046996.6,N
1638604915.1,286046996.7,N
1638604916.0,286046996.7,N
1638604935.8,286046997.7,N
1638604955.6,286046996.6,N
1638604975.5,286046997.3,N
1638604995.3,286046999.6,N
1638605015.2,286046999.3,N
1638605035.9,286046997.8,N
1638605055.7,286046997.8,N
1638605075.6,286046994.9,Y
1638605095.4,286047001.1,P
1638605115.2,286046998.2,N
1638605135.1,286046998.2,N
1638605136.0,286046998.2,N
1638605155.8,286047001.2,N
1638605175.7,286046998.1,N
1638605195.5,286047001.1,N
1638605215.3,286046998.1,N
1638605235.2,286046998.7,N
1638605255.0,286046998.3,N
1638605255.9,286046998.3,N
1638605275.7,286046998.6,N
1638605295.6,286046999.3,N
1638605315.4,286046996.7,N
1638605335.3,286046997.8,N
1638605355.1,286046999.3,N
1638605356.0,286046999.3,N
1638605375.8,286046998.9,N
1638605395.7,286046999.2,N
1638605415.5,286046999.3,N
1638605435.4,286046998.4,N
1638605455.2,286046999.2,N
1638605475.0,286046999.1,N
1638605475.9,286046999.1,N
1638605495.8,286046997.7,N
1638605515.6,286046997.3,N
1638605535.4,286046997.0,N
1638605555.3,286046999.5,N
1638605575.1,286046996.5,Y
1638605595.9,286047000.5,P
1638605615.7,286047000.3,N
1638605635.5,286046999.9,N
1638605655.4,286046999.8,N
1638605675.2,286047000.2,N
1638605695.0,286047001.5,N
1638605695.9,286047001.5,N
1638605715.8,286047000.7,N
1638605735.6,286047000.2,N
1638605755.5,286047000.2,N
1638605775.3,286047000.2,N
1638605795.1,286047000.9,N
1638605815.9,286047001.0,N
1638605835.7,286046998.2,N
1638605855.5,286046999.1,N
1638605875.4,286046999.1,N
1638605895.2,286046999.0,N
1638605915.1,286046999.2,N
1638605916.0,286046999.2,N
1638605935.8,286046998.9,N
1638605955.6,286046999.4,N
1638605975.5,286046998.7,N
1638605995.3,286046998.7,N
1638606015.1,286046999.2,N
1638606035.9,286046997.4,N
1638606055.7,286046997.3,N
1638606075.6,286046997.0,N
1638606095.4,286046999.2,N
1638606115.2,286046996.7,N
1638606135.1,286046995.3,Y
1638606136.0,286046995.3,P
1638606155.8,286046997.7,N
1638606175.7,286046996.9,N
1638606195.5,286046997.0,N
1638606215.3,286046996.8,N
1638606235.2,286046999.6,N
1638606255.0,286046996.6,N
1638606255.9,286046996.6,N
1638606275.7,286046996.6,N
1638606295.6,286046998.9,N
1638606315.4,286046998.7,N
1638606335.3,286046999.2,N
1638606355.1,286046998.7,N
1638606356.0,286046998.7,N
1638606375.8,286046999.2,N
1638606395.7,286046998.5,N
1638606415.5,286046998.9,N
1638606435.3,286046998.9,N
1638606455.2,286046998.6,N
1638606475.0,286046998.5,N
1638606475.9,286046998.5,N
1638606495.8,286046999.3,N
1638606515.6,286046999.4,N
1638606535.4,286046999.6,N
1638606555.3,286046999.1,N
1638606575.1,286046997.8,N
1638606595.9,286046998.0,N
1638606615.7,286046997.8,N
1638606635.5,286046997.2,N
1638606655.4,286046997.4,N
1638606675.2,286046994.9,Y
1638606695.1,286046999.4,P
1638606696.0,286046999.4,N
1638606715.8,286046999.2,N
1638606735.6,286046998.9,N
1638606755.5,286047000.7,N
1638606775.3,286047000.7,N
1638606795.2,286047000.2,N
1638606815.9,286047001.0,N
1638606835.7,286046998.5,N
1638606855.6,286046998.9,N
1638606875.4,286046998.3,N
1638606895.2,286046998.9,N
1638606915.1,286046998.5,N
1638606916.0,286046998.5,N
1638606935.8,286046999.2,N
1638606955.7,286046996.9,Y
1638606975.5,286046996.6,P
1638606995.3,286046996.9,N
1638607015.2,286046998.4,N
1638607035.0,286046998.1,N
1638607035.9,286046998.1,N
1638607055.8,286046998.6,N
1638607075.6,286046996.5,Y
1638607095.4,286046999.3,P
1638607115.3,286046997.9,P
1638607135.1,286046996.7,P
1638607155.9,286046999.3,N
1638607175.7,286046998.6,N
1638607195.5,286046998.5,N
1638607215.4,286046998.5,N
1638607235.2,286047001.2,N
1638607255.0,286047000.8,N
1638607255.9,286047000.8,N
1638607275.8,286046999.9,N
1638607295.6,286047004.3,Y
1638607315.5,286047003.6,P
1638607335.3,286047004.1,N
1638607355.1,286047004.4,N
1638607375.9,286047001.8,N
1638607395.7,286047001.5,N
1638607415.5,286047001.3,N
1638607435.4,286047001.3,N
1638607455.2,286047002.7,N
1638607475.1,286047000.1,N
1638607476.0,286047000.1,N
1638607495.8,286046999.8,N
1638607515.6,286047000.0,N
1638607535.5,286047000.4,N
1638607555.3,286047000.0,N
1638607575.1,286047000.0,N
1638607595.9,286046999.7,N
1638607615.7,286047002.0,N
1638607635.6,286047002.0,N
1638607655.4,286047003.9,N
1638607675.2,286047001.5,N
1638607695.1,286047004.3,N
1638607696.0,286047004.3,N
1638607715.8,286047001.5,N
1638607735.6,286047004.2,N
1638607755.5,286047001.3,N
1638607775.3,286047001.6,N
1638607795.2,286047001.4,N
1638607815.9,286047001.7,N
1638607835.7,286047002.4,N
1638607855.6,286046999.8,N
1638607875.4,286047001.1,N
1638607895.2,286047000.1,N
1638607915.1,286047001.6,N
1638607916.0,286047001.6,N
1638607935.8,286047001.9,N
1638607955.7,286047002.6,N
1638607975.5,286047001.9,N
1638607995.3,286047003.9,N
1638608015.2,286047002.2,N
1638608035.0,286047002.4,N
1638608035.9,286047002.4,N
1638608055.8,286047002.5,N
1638608075.6,286047002.0,N
1638608095.4,286047001.6,N
1638608115.3,286047004.2,Y
1638608135.1,286047000.2,P
1638608155.8,286046999.7,N
1638608175.7,286047002.8,N
1638608195.5,286047000.5,N
1638608215.4,286047001.0,N
1638608235.2,286047000.5,N
1638608255.0,286046999.7,N
1638608255.9,286046999.7,N
1638608275.8,286047002.8,N
1638608295.6,286047000.1,N
1638608315.4,286047000.4,N
1638608335.3,286047000.1,N
1638608355.1,286047000.5,N
1638608375.9,286047001.0,N
1638608395.7,286047000.3,N
